sat.trackr.live / text

‹ back to catalog

2023-085AD

NORAD 57031 · 2023-085AD

PAYLOAD ACTIVE UNKNOWN

§ Identity

Operator
Country
PRC
Launch date
2023-06-15
Launch site
TAISC
Launch vehicle
Mass (kg)
RCS (m²)

External: N2YO · Heavens-Above · Gunter

§ Orbital elements

Epoch: 2026-05-25T04:57:26.836704Z

Period
93.87 min
Inclination
97.4924°
Eccentricity
0.0009618
Mean motion
15.34078013 rev/d
Perigee alt
457.1 km
Apogee alt
470.2 km
Semi-major
6,841.8 km
B*
4.6782e-4
RAAN
257.4828°
Arg perigee
154.4070°
Mean anomaly
205.7650°
Rev number
16,325

§ Raw data

2023-085AD1 57031U 23085AD  26145.20656061  .00015381  00000+0  46782-3 0  99952 57031  97.4924 257.4828 0009618 154.4070 205.7650 15.34078013163258

JSON: /api/v1/satellites/57031 · /tle

For live sub-satellite position, see the globe view (requires WebGL).

§ Visibility from observer

Set your observer location to see the next 7 days of passes ≥ 10°. The values pass through the URL so the page stays shareable.

No JS? Fill the form by hand. The geolocation button needs JavaScript.